�N����,����,�~����,�C��,���x,�C��,����,���ϕ���,�ő�u�ԕ���,�ő厞����,���˗�,�I�_���x,�n�����x,�ő啗���N��,DTYPE
"18/12/21","00:10",0.0,7.0,98.7,1019.0,311.5,3.4,3.9,309.8,0.00,6.8,8.2,"00:06:36",1
"18/12/21","00:20",0.0,7.0,98.8,1019.0,318.8,3.9,4.7,318.5,0.00,6.9,8.1,"00:16:42",1
"18/12/21","00:30",0.0,7.0,98.7,1019.2,320.2,3.5,4.0,317.9,0.00,6.8,8.2,"00:20:54",1
"18/12/21","00:40",0.0,7.0,98.7,1019.4,321.3,3.0,3.7,327.7,0.00,6.8,8.2,"00:37:26",1
"18/12/21","00:50",0.0,6.8,98.8,1019.2,321.5,2.2,2.8,323.6,0.00,6.7,8.0,"00:46:40",1
"18/12/21","01:00",0.0,7.0,98.9,1019.4,326.2,2.1,2.9,325.7,0.00,6.9,8.0,"00:57:30",1
"18/12/21","01:10",0.0,7.0,98.7,1019.4,319.9,2.5,3.9,314.8,0.00,6.8,8.1,"01:03:02",1
"18/12/21","01:20",0.0,6.9,98.8,1019.9,321.1,1.7,3.1,325.8,0.00,6.8,8.1,"01:19:02",1
"18/12/21","01:30",0.0,6.9,98.7,1019.4,323.6,2.5,3.4,322.5,0.00,6.7,8.4,"01:20:48",1
"18/12/21","01:40",0.0,6.9,98.8,1019.4,315.4,2.0,2.9,316.4,0.00,6.8,8.1,"01:38:04",1
"18/12/21","01:50",0.0,6.8,98.8,1019.9,318.8,1.8,2.5,330.4,0.00,6.7,8.2,"01:41:12",1
"18/12/21","02:00",0.0,6.9,99.0,1019.4,347.3,1.5,2.2,334.8,0.00,6.8,8.1,"01:56:32",1
"18/12/21","02:10",0.0,6.6,98.8,1019.7,332.4,2.3,3.1,312.4,0.00,6.5,7.9,"02:01:10",1
"18/12/21","02:20",0.0,6.9,98.8,1019.7,322.8,3.0,3.2,332.6,0.00,6.8,8.2,"02:16:20",1
"18/12/21","02:30",0.0,6.8,98.9,1019.9,320.4,2.3,3.2,331.1,0.00,6.7,8.1,"02:28:14",1
"18/12/21","02:40",0.0,6.8,98.8,1019.7,320.9,3.5,4.5,331.5,0.00,6.7,8.3,"02:32:06",1
"18/12/21","02:50",0.0,6.8,98.8,1019.7,328.4,3.5,4.0,319.3,0.00,6.7,8.1,"02:48:32",1
"18/12/21","03:00",0.0,6.7,98.6,1020.1,324.6,4.2,5.0,329.9,0.00,6.5,7.8,"02:52:08",1
"18/12/21","03:10",0.0,6.3,98.4,1020.1,322.7,2.1,2.4,337.7,0.00,6.1,8.0,"03:09:12",1
"18/12/21","03:20",0.0,6.2,98.9,1019.9,333.1,2.3,2.9,332.3,0.00,6.1,8.0,"03:15:12",1
"18/12/21","03:30",0.0,6.4,99.1,1019.9,329.5,2.6,4.1,324.1,0.00,6.3,7.9,"03:29:48",1
"18/12/21","03:40",0.0,6.2,98.6,1020.1,307.3,2.8,3.6,317.0,0.00,6.0,7.9,"03:35:26",1
"18/12/21","03:50",0.0,6.5,98.8,1019.9,307.1,3.5,4.4,309.8,0.00,6.4,7.8,"03:47:48",1
"18/12/21","04:00",0.0,6.4,98.8,1020.1,313.9,3.9,4.3,315.4,0.00,6.3,7.8,"03:56:22",1
"18/12/21","04:10",0.0,6.4,98.7,1019.9,322.9,3.6,4.1,319.5,0.00,6.3,8.0,"04:02:12",1
"18/12/21","04:20",0.0,6.2,98.4,1019.7,323.8,2.5,2.9,318.9,0.00,6.0,7.9,"04:14:18",1
"18/12/21","04:30",0.0,6.0,98.5,1019.7,327.5,2.8,3.9,316.6,0.00,5.8,7.7,"04:28:22",1
"18/12/21","04:40",0.0,5.5,98.6,1019.9,330.5,2.6,4.0,331.3,0.00,5.3,7.8,"04:31:58",1
"18/12/21","04:50",0.0,5.8,98.9,1019.9,333.7,3.0,3.9,321.7,0.00,5.7,7.8,"04:46:16",1
"18/12/21","05:00",0.2,5.9,98.5,1019.9,325.5,2.7,4.7,319.3,0.00,5.7,7.7,"04:50:24",1
"18/12/21","05:10",0.0,5.5,98.5,1020.4,344.8,1.1,2.1,1.6,0.00,5.3,7.7,"05:01:22",1
"18/12/21","05:20",0.0,5.8,98.8,1019.9,333.1,2.1,4.0,330.2,0.00,5.7,7.6,"05:19:10",1
"18/12/21","05:30",0.0,5.9,98.7,1019.7,328.5,2.8,4.2,325.3,0.00,5.8,7.4,"05:23:16",1
"18/12/21","05:40",0.0,5.6,98.6,1019.9,318.8,1.8,2.9,328.3,0.00,5.4,7.7,"05:30:40",1
"18/12/21","05:50",0.0,5.5,98.3,1019.7,321.1,1.7,3.4,330.8,0.00,5.3,7.6,"05:41:44",1
"18/12/21","06:00",0.0,4.5,97.9,1019.9,335.2,1.2,2.4,306.9,0.00,4.2,7.6,"05:59:52",1
"18/12/21","06:10",0.0,4.4,99.9,1020.1,328.3,2.2,2.8,326.4,0.00,4.4,7.5,"06:09:58",1
"18/12/21","06:20",0.0,5.0,98.8,1019.9,330.2,2.6,3.9,337.5,0.00,4.9,7.5,"06:18:10",1
"18/12/21","06:30",0.0,4.9,99.0,1020.1,333.2,2.3,3.7,327.3,0.00,4.8,7.6,"06:21:36",1
"18/12/21","06:40",0.0,4.8,98.7,1020.4,331.3,2.1,2.8,335.9,0.00,4.7,7.6,"06:30:16",1
"18/12/21","06:50",0.0,4.7,99.0,1020.1,319.8,1.7,2.2,340.8,0.00,4.6,7.5,"06:41:04",1
"18/12/21","07:00",0.0,4.6,99.0,1020.4,334.3,2.2,3.3,337.2,0.00,4.5,7.2,"06:55:06",1
"18/12/21","07:10",0.0,4.6,99.0,1020.4,329.9,2.0,2.9,340.7,0.00,4.5,7.6,"07:04:02",1
"18/12/21","07:20",0.0,4.7,98.9,1020.4,330.8,2.5,3.7,336.0,0.00,4.6,7.4,"07:14:26",1
"18/12/21","07:30",0.0,4.7,99.2,1020.1,330.5,2.5,3.3,338.0,0.00,4.6,7.2,"07:23:46",1
"18/12/21","07:40",0.0,4.8,99.0,1019.9,332.5,2.3,3.5,333.4,0.00,4.7,7.3,"07:39:52",1
"18/12/21","07:50",0.0,4.7,99.1,1020.1,331.2,2.5,3.5,334.5,0.00,4.6,7.2,"07:47:04",1
"18/12/21","08:00",0.0,5.0,99.1,1020.6,330.8,2.7,3.6,336.8,0.00,4.9,7.3,"07:54:00",1
"18/12/21","08:10",0.0,5.3,99.1,1020.4,322.2,2.5,4.0,318.2,0.01,5.2,7.2,"08:02:00",1
"18/12/21","08:20",0.0,5.7,98.9,1020.6,314.2,2.7,4.4,321.6,0.01,5.6,7.2,"08:17:04",1
"18/12/21","08:30",0.0,5.9,98.7,1021.1,330.6,2.8,4.4,339.5,0.02,5.8,7.5,"08:26:00",1
"18/12/21","08:40",0.0,6.2,98.7,1020.8,333.2,2.3,3.3,339.2,0.03,6.1,7.5,"08:33:14",1
"18/12/21","08:50",0.0,6.6,98.5,1021.3,330.1,2.0,2.7,341.0,0.05,6.4,7.3,"08:43:08",1
"18/12/21","09:00",0.0,7.0,98.0,1020.8,315.4,2.3,3.5,319.3,0.07,6.7,7.5,"08:58:52",1
"18/12/21","09:10",0.0,7.1,97.5,1020.8,290.7,2.2,3.7,331.4,0.09,6.8,7.6,"09:08:00",1
"18/12/21","09:20",0.0,7.5,98.1,1021.3,293.6,2.1,3.4,331.8,0.11,7.3,7.7,"09:15:36",1
"18/12/21","09:30",0.0,8.0,96.9,1022.0,304.4,2.5,4.4,331.0,0.14,7.6,7.8,"09:22:48",1
"18/12/21","09:40",0.0,8.2,96.4,1021.3,301.7,2.5,3.7,321.2,0.16,7.7,7.9,"09:31:12",1
"18/12/21","09:50",0.0,8.5,95.7,1021.5,303.3,2.5,3.7,323.2,0.19,7.9,7.9,"09:48:00",1
"18/12/21","10:00",0.0,9.1,94.6,1021.5,301.8,2.1,3.6,320.5,0.21,8.3,8.2,"09:52:32",1
"18/12/21","10:10",0.0,9.5,93.3,1021.3,283.5,1.6,2.8,328.0,0.23,8.5,8.2,"10:00:16",1
"18/12/21","10:20",0.0,9.7,91.7,1021.3,286.5,1.7,3.6,318.5,0.25,8.5,8.5,"10:19:44",1
"18/12/21","10:30",0.0,9.4,91.2,1021.5,260.8,1.8,3.5,237.8,0.27,8.1,8.6,"10:26:08",1
"18/12/21","10:40",0.0,9.7,90.5,1021.5,279.7,1.6,3.1,266.1,0.29,8.3,8.8,"10:30:48",1
"18/12/21","10:50",0.0,10.4,87.8,1021.5,275.1,1.1,2.5,331.2,0.31,8.5,8.9,"10:46:24",1
"18/12/21","11:00",0.0,10.2,88.0,1021.3,250.8,1.2,2.5,231.6,0.32,8.3,9.1,"10:53:44",1
"18/12/21","11:10",0.0,10.5,88.6,1021.1,249.8,1.2,2.2,260.8,0.34,8.7,9.3,"11:08:08",1
"18/12/21","11:20",0.0,10.9,87.4,1021.5,300.3,1.5,2.7,306.0,0.35,8.9,9.5,"11:10:32",1
"18/12/21","11:30",0.0,11.1,87.1,1021.3,300.0,1.5,2.9,333.4,0.36,9.1,9.7,"11:22:08",1
"18/12/21","11:40",0.0,11.3,85.2,1021.5,293.3,1.2,2.7,323.1,0.36,8.9,9.8,"11:31:12",1
"18/12/21","11:50",0.0,11.4,80.8,1021.1,219.3,1.0,2.1,195.9,0.37,8.3,10.3,"11:42:16",1
"18/12/21","12:00",0.0,11.9,79.8,1020.8,218.2,1.1,2.8,192.2,0.38,8.6,10.4,"11:57:36",1
"18/12/21","12:10",0.0,12.3,77.0,1020.6,252.9,0.8,1.8,175.0,0.38,8.4,10.5,"12:03:36",1
"18/12/21","12:20",0.0,12.5,74.0,1020.6,228.4,1.2,2.5,212.1,0.38,8.0,11.0,"12:17:20",1
"18/12/21","12:30",0.0,12.4,71.5,1020.4,216.2,1.7,3.3,219.8,0.38,7.4,10.9,"12:22:40",1
"18/12/21","12:40",0.0,12.8,71.5,1020.1,234.1,1.3,2.6,219.5,0.38,7.8,11.2,"12:32:40",1
"18/12/21","12:50",0.0,13.2,69.8,1020.1,202.6,1.2,3.1,157.2,0.38,7.9,11.2,"12:41:04",1
"18/12/21","13:00",0.0,13.2,67.3,1019.9,224.9,1.1,2.6,201.1,0.38,7.3,11.5,"12:58:24",1
"18/12/21","13:10",0.0,13.4,64.9,1019.7,222.3,1.2,2.4,234.3,0.37,7.0,11.7,"13:01:52",1
"18/12/21","13:20",0.0,13.6,61.2,1019.7,239.3,1.1,2.0,205.9,0.36,6.3,11.8,"13:12:40",1
"18/12/21","13:30",0.0,13.8,62.8,1019.2,216.7,0.8,1.8,110.9,0.35,6.9,11.8,"13:27:12",1
"18/12/21","13:40",0.0,13.6,56.4,1019.2,241.5,1.2,3.1,225.9,0.34,5.1,12.0,"13:31:04",1
"18/12/21","13:50",0.0,13.7,58.7,1019.2,193.2,1.1,2.6,232.6,0.32,5.8,12.0,"13:49:04",1
"18/12/21","14:00",0.0,13.8,57.0,1019.0,188.6,1.0,2.6,237.6,0.31,5.5,12.3,"13:53:44",1
"18/12/21","14:10",0.0,13.9,55.2,1018.2,202.1,1.0,2.4,148.9,0.28,5.1,12.2,"14:04:24",1
"18/12/21","14:20",0.0,14.0,54.5,1018.5,234.4,1.1,2.1,234.1,0.27,5.0,12.6,"14:18:16",1
"18/12/21","14:30",0.0,14.4,54.7,1018.0,249.6,1.2,2.1,200.7,0.25,5.4,12.4,"14:23:44",1
"18/12/21","14:40",0.0,14.5,53.0,1017.8,218.4,1.1,2.1,132.9,0.23,5.1,12.6,"14:32:08",1
"18/12/21","14:50",0.0,14.5,54.6,1018.0,241.3,1.3,2.6,232.6,0.21,5.5,12.6,"14:44:16",1
"18/12/21","15:00",0.0,14.3,52.8,1018.2,194.0,1.2,2.7,226.9,0.19,4.8,12.6,"14:51:44",1
"18/12/21","15:10",0.0,14.1,52.2,1017.5,243.8,1.1,2.6,228.1,0.16,4.5,12.6,"15:06:40",1
"18/12/21","15:20",0.0,14.0,53.4,1017.5,271.5,1.1,2.2,306.9,0.09,4.7,12.5,"15:11:12",1
"18/12/21","15:30",0.0,14.1,54.3,1017.8,254.6,1.2,2.1,245.5,0.08,5.1,12.5,"15:27:28",1
"18/12/21","15:40",0.0,13.7,56.5,1017.8,239.8,1.5,2.5,239.0,0.08,5.3,12.4,"15:33:12",1
"18/12/21","15:50",0.0,13.9,54.8,1017.5,262.2,1.2,2.0,244.0,0.09,5.0,12.6,"15:41:44",1
"18/12/21","16:00",0.0,14.1,55.4,1017.5,285.2,1.3,2.4,261.3,0.07,5.3,12.3,"15:50:02",1
"18/12/21","16:10",0.0,13.4,59.5,1017.5,299.1,1.7,2.6,339.5,0.05,5.7,12.3,"16:03:44",1
"18/12/21","16:20",0.0,13.2,60.9,1017.1,283.1,1.5,2.2,288.4,0.02,5.9,12.2,"16:12:16",1
"18/12/21","16:30",0.0,12.7,64.1,1017.3,280.9,1.1,1.8,280.4,0.01,6.1,12.0,"16:29:36",1
"18/12/21","16:40",0.0,12.2,66.6,1017.1,286.8,1.5,2.0,312.7,0.00,6.2,12.1,"16:34:10",1
"18/12/21","16:50",0.0,11.9,69.5,1017.3,289.1,1.2,1.8,311.8,0.00,6.5,11.7,"16:46:22",1
"18/12/21","17:00",0.0,11.7,71.9,1017.3,293.1,1.5,2.1,297.1,0.00,6.8,11.9,"16:54:58",1
"18/12/21","17:10",0.0,11.6,73.1,1017.3,303.4,1.8,2.9,309.9,0.00,7.0,11.7,"17:06:26",1
"18/12/21","17:20",0.0,11.5,73.8,1017.8,292.7,1.5,1.9,290.4,0.00,7.0,11.7,"17:14:40",1
"18/12/21","17:30",0.0,11.4,74.6,1018.0,305.5,2.1,2.5,314.1,0.00,7.1,11.6,"17:27:20",1
"18/12/21","17:40",0.0,11.2,75.9,1017.8,290.9,1.5,1.8,313.4,0.00,7.2,11.7,"17:30:52",1
"18/12/21","17:50",0.0,11.3,76.0,1018.0,296.2,1.8,2.5,324.5,0.00,7.3,11.4,"17:45:00",1
"18/12/21","18:00",0.0,11.3,76.9,1018.2,308.5,2.0,2.7,324.1,0.00,7.4,11.5,"17:52:44",1
"18/12/21","18:10",0.0,11.2,77.7,1018.2,299.8,1.8,2.2,313.1,0.00,7.5,11.5,"18:02:36",1
"18/12/21","18:20",0.0,11.2,78.4,1018.5,312.1,2.1,2.8,329.2,0.00,7.6,11.5,"18:18:12",1
"18/12/21","18:30",0.2,10.8,80.7,1018.2,287.2,1.7,2.5,341.3,0.00,7.7,11.2,"18:20:24",1
"18/12/21","18:40",0.2,10.4,83.5,1018.2,301.2,1.7,2.8,324.7,0.00,7.8,11.2,"18:34:16",1
"18/12/21","18:50",0.0,10.2,85.9,1018.0,297.9,1.2,1.8,331.5,0.00,8.0,11.2,"18:42:24",1
"18/12/21","19:00",0.2,9.9,87.8,1018.5,312.4,1.6,2.6,335.7,0.00,8.0,11.2,"18:52:48",1
"18/12/21","19:10",0.2,9.7,89.1,1017.8,287.7,1.2,2.1,319.9,0.00,8.0,11.1,"19:01:44",1
"18/12/21","19:20",0.4,9.6,90.1,1018.0,314.1,1.6,2.1,318.7,0.00,8.1,10.9,"19:15:44",1
"18/12/21","19:30",0.2,9.6,91.1,1018.0,301.6,1.0,1.6,313.4,0.00,8.3,11.0,"19:25:52",1
"18/12/21","19:40",0.2,9.5,91.9,1017.8,286.9,1.0,1.3,272.1,0.00,8.3,10.9,"19:32:16",1
"18/12/21","19:50",0.2,9.4,92.4,1017.8,282.2,1.2,1.6,266.3,0.00,8.3,10.9,"19:46:16",1
"18/12/21","20:00",0.0,9.3,93.0,1017.8,291.5,1.2,1.7,310.3,0.00,8.3,10.9,"19:51:12",1
"18/12/21","20:10",0.0,9.3,93.4,1017.8,292.8,0.8,1.1,301.8,0.00,8.3,10.7,"20:09:04",1
"18/12/21","20:20",0.0,9.3,93.8,1018.0,292.9,1.2,1.8,304.5,0.00,8.4,10.6,"20:14:48",1
"18/12/21","20:30",0.4,9.3,94.1,1017.8,285.1,1.1,2.2,308.7,0.00,8.4,10.7,"20:23:04",1
"18/12/21","20:40",0.6,9.2,94.4,1018.2,284.3,1.0,1.7,268.6,0.00,8.4,10.7,"20:30:08",1
"18/12/21","20:50",0.6,9.2,94.7,1018.2,275.9,1.0,1.3,255.4,0.00,8.4,10.7,"20:48:48",1
"18/12/21","21:00",0.4,9.2,94.9,1018.2,274.1,0.8,1.7,301.9,0.00,8.5,10.6,"20:53:20",1
"18/12/21","21:10",0.6,9.2,95.1,1018.5,293.9,1.2,2.4,322.2,0.00,8.5,10.7,"21:09:58",1
"18/12/21","21:20",0.8,9.2,95.4,1018.0,332.3,1.1,1.7,316.1,0.00,8.5,10.6,"21:10:48",1
"18/12/21","21:30",0.4,9.2,95.6,1017.5,288.0,0.6,1.7,320.1,0.00,8.6,10.4,"21:20:40",1
"18/12/21","21:40",0.0,9.1,95.9,1018.0,265.2,0.8,1.2,246.7,0.00,8.5,10.5,"21:39:04",1
"18/12/21","21:50",0.0,9.1,96.0,1017.8,253.9,0.8,1.6,246.6,0.00,8.5,10.5,"21:41:08",1
"18/12/21","22:00",0.4,9.1,96.3,1017.8,308.3,1.0,1.7,317.9,0.00,8.6,10.4,"21:51:42",1
"18/12/21","22:10",0.0,9.2,96.4,1017.8,330.5,1.1,2.6,313.2,0.00,8.7,10.5,"22:08:18",1
"18/12/21","22:20",0.4,9.2,96.5,1017.3,331.5,1.3,2.6,334.5,0.00,8.7,10.3,"22:12:40",1
"18/12/21","22:30",0.2,9.2,96.6,1017.5,310.2,1.3,2.2,315.9,0.00,8.7,10.5,"22:25:04",1
"18/12/21","22:40",0.2,9.3,96.8,1017.5,307.9,1.3,2.1,306.7,0.00,8.9,10.3,"22:38:08",1
"18/12/21","22:50",0.2,9.3,97.0,1017.8,279.8,1.2,1.8,274.1,0.00,8.9,10.2,"22:42:26",1
"18/12/21","23:00",0.0,9.4,97.0,1017.5,301.0,1.1,1.6,314.3,0.00,9.0,10.3,"22:52:50",1
"18/12/21","23:10",0.0,9.5,97.2,1017.3,281.0,0.8,1.1,277.2,0.00,9.1,10.1,"23:06:50",1
"18/12/21","23:20",0.0,9.6,97.1,1017.1,297.7,0.6,1.1,300.6,0.00,9.2,10.3,"23:10:08",1
"18/12/21","23:30",0.0,9.6,97.1,1016.8,33.7,0.6,1.4,315.0,0.00,9.2,10.3,"23:28:36",1
"18/12/21","23:40",0.0,9.5,97.3,1016.8,309.4,0.8,1.7,314.8,0.00,9.1,10.4,"23:32:24",1
"18/12/21","23:50",0.2,9.5,97.4,1017.1,324.6,1.1,1.8,349.1,0.00,9.1,10.4,"23:48:32",1
"18/12/21","24:00",0.0,9.6,97.6,1016.8,265.3,0.5,1.1,257.5,0.00,9.3,10.2,"23:59:36",1
